Temp_Advection
nan nan nan nan nan nan nan nan nan nan nan nan nan nan nan nan nan nan nan nan nan nan nan nan nan nan nan nan nan nan nan nan nan nan nan nan nan nan nan nan nan nan nan nan nan nan nan nan nan
nan -0 -0 -0 -0 0 -0 -0 -0 -0 0 -0 -0 -0 -0 -0 -0 -0 -0 1 0 -0 -0 -0 0 0 -0 0 0 0 0 -0 0 -0 -0 0 -0 0 0 -0 -0 -0 0 -0 -0 -0 0 0 nan
nan -0 -0 -0 0 -0 -0 -0 -0 -1 -1 -0 -0 -0 -0 -1 0 -0 -0 -0 0 -0 -0 -0 0 -0 -0 -0 -0 0 0 -0 -0 -0 -0 0 -0 0 0 -0 -0 -0 0 0 0 -0 -0 0 nan
nan -0 -0 0 -0 -0 -1 -0 -0 -0 -1 -0 -1 -0 -0 -1 -1 -1 -0 -0 -0 -0 -0 -0 -0 -0 0 -0 -0 -0 -0 -0 -0 -0 0 -0 -0 -0 0 -0 -0 -0 -0 -0 0 0 -0 -0 nan
nan -0 -0 0 -0 -1 -1 0 -0 -0 -0 0 -0 -0 0 -0 -1 -1 -0 -0 -0 -1 -0 -0 -0 0 -0 -0 -0 -0 -0 -0 -0 -0 0 -0 -0 -0 -0 -0 -0 -0 -0 -0 -0 0 -0 -0 nan
nan -0 0 -0 -1 -1 -0 0 0 -0 -1 -0 -0 -0 0 0 -0 -0 -0 -0 -0 -1 -1 -0 -0 0 -0 -0 -0 -0 -0 -0 -0 -0 -0 -0 -0 -0 -0 -0 -0 -0 -0 -0 -0 0 0 -0 nan
nan 0 -0 -0 -0 -0 0 -0 -0 0 -0 -0 -1 -0 0 1 0 -0 -0 -0 0 0 -0 -0 -0 -0 -0 -0 -0 -0 -0 -0 -0 -0 -0 -0 -0 -0 -0 -0 -0 -0 -0 -0 -0 -0 -0 -0 nan
nan 0 -0 -0 0 -0 0 -0 0 0 -0 -0 -1 -0 -1 0 1 0 0 1 0 0 0 -0 -0 -0 -0 -0 -0 -0 -0 -0 -0 0 -0 -0 -0 -0 -0 -0 -0 -0 0 0 -0 -0 -0 -0 nan
nan 0 -0 -0 0 -0 -0 -0 -0 0 1 0 0 -1 -2 -1 -1 0 1 1 0 -0 -0 0 -0 -0 -0 -0 -0 -0 -0 -0 -0 -0 -0 -0 -0 -0 -0 -0 -0 -0 0 -0 -0 0 -0 -0 nan
nan -0 -1 0 -0 -0 -1 0 -0 0 0 -0 0 0 -0 -1 0 -1 -1 -1 -1 -1 -0 0 0 -0 -0 -0 -0 -0 -0 -0 0 -0 -0 0 0 -0 -0 0 -0 -0 -0 -0 0 0 -0 -0 nan
nan -1 -0 -0 -1 -2 -0 0 0 -0 -0 -0 -1 0 -0 -1 0 -0 -1 -1 -1 -0 -0 -0 -0 -0 -0 0 -0 -0 -0 -0 -0 -0 -0 -0 0 0 -0 -0 -0 0 -0 0 0 0 0 0 nan
nan -2 -1 -1 -0 -1 0 -1 -0 -0 -0 -0 -1 -0 -0 -1 -2 -1 -1 -0 -0 0 -0 -0 -0 -0 -0 0 0 0 -0 -0 -0 -0 -0 -0 -0 0 -0 -0 0 0 0 0 -0 0 0 0 nan
nan -0 -0 -0 -1 -0 -1 -0 -1 -0 0 0 0 0 -0 -0 -2 -1 -0 -0 -1 -0 -0 -0 -0 -0 -0 -0 0 0 0 0 -0 -0 -0 0 -0 -0 0 0 0 0 -0 -0 0 0 0 -0 nan
nan -1 -1 -1 -1 -0 -1 -0 -0 -0 -0 -0 0 -0 -0 -0 -0 -1 -0 -0 -0 -0 -0 -0 -0 -0 -0 -0 -0 0 -0 0 0 -0 -0 -0 -0 -0 0 0 -0 -0 -0 -0 0 -0 0 -0 nan
nan -0 -1 0 -0 -0 -0 -0 -0 -0 -1 -0 -0 -0 -0 -0 -0 -0 -1 -1 -0 -0 -0 -0 0 -0 -0 -0 -0 0 0 -0 0 -0 -0 -0 -0 0 -0 -0 0 0 0 0 0 0 0 0 nan
nan -0 0 -0 -0 -0 -2 -0 -0 0 -0 -0 -0 -0 -0 -0 -0 -0 -0 -0 -0 -0 0 0 0 -0 -0 0 -0 0 0 -0 -0 -0 -0 -0 -0 -0 -0 -0 0 0 -0 0 0 0 0 0 nan
nan -0 -0 -1 0 -0 -1 -0 0 -0 -0 -0 -0 -0 -0 -0 -0 -0 -0 -0 -0 0 0 -0 -0 -0 -0 0 -0 0 -0 -0 -0 -0 -0 -0 0 0 -0 -0 0 0 -0 -0 -0 0 0 0 nan
nan -0 -1 -1 -0 -1 -1 -1 -0 -0 -0 -0 -0 -0 -0 -0 -1 -0 -0 -0 0 0 0 -0 -0 -0 -0 -0 0 -0 -0 -0 -0 -0 -0 0 -0 0 0 0 0 0 -0 0 -0 -0 0 0 nan
nan 0 -0 -1 -1 0 -1 -0 -0 1 0 -0 -0 -0 -0 -1 -1 -0 -0 0 1 0 0 -0 -0 -0 -0 -0 -0 -0 -0 0 0 -0 0 -0 -0 -0 -0 -0 0 -0 -0 -0 0 -0 0 0 nan
nan -0 -2 -2 0 -0 -1 -0 0 0 -0 -0 -0 -0 -1 -1 -0 -0 0 0 0 0 -0 -0 -0 -0 0 -0 -0 -0 0 0 0 0 -0 -0 0 0 0 0 0 -0 -0 0 0 0 0 0 nan
nan -1 -2 -1 -0 -1 -1 0 0 -0 -0 0 0 -1 -0 -0 -0 0 0 0 -0 -0 -0 0 0 0 0 0 0 -0 0 -0 -0 -0 -0 -0 -0 0 0 0 -0 -0 -0 -0 -0 0 -0 -0 nan
nan -2 -1 1 -0 0 -0 0 -0 -0 -0 -0 -1 -1 -0 -0 -0 0 0 -0 0 -0 0 0 0 0 0 0 0 0 -0 -0 -0 -0 -0 -0 0 0 0 -0 -0 0 -0 -0 -0 -0 -0 -0 nan
nan -0 0 0 0 -0 -0 -0 -0 -0 -0 -0 -1 -0 -0 -0 1 -0 -0 0 0 0 0 0 0 0 0 0 0 0 -0 0 0 -0 -0 0 0 0 0 0 0 -0 -0 -0 -0 -0 0 -0 nan
nan 0 0 -0 -0 0 0 -0 0 -0 -0 -0 -1 -0 -1 -0 -0 0 1 1 0 0 0 0 0 0 0 0 0 0 0 0 0 -0 -0 -0 0 0 0 0 0 -0 -0 -0 0 0 -0 -0 nan
nan -0 -0 -0 0 -0 0 -0 -1 -0 -0 -1 -1 -0 -0 -0 -0 1 0 -0 0 -0 -0 -0 0 0 0 0 0 -0 -0 -0 -0 -0 -0 -0 -0 -0 0 0 0 -0 -0 -0 -0 0 -0 0 nan
nan -0 -0 -0 -0 -0 0 -0 -0 -0 -0 -0 0 -1 0 -0 -1 -1 -1 -0 -0 -1 -0 -0 -0 -0 0 -0 -0 -0 -0 -0 -0 -0 -0 -0 -0 0 0 0 -0 -0 -0 -0 -0 0 0 0 nan
nan 0 0 0 -0 -0 -0 -0 -0 -0 -0 0 0 -0 -0 -1 0 -0 0 -0 -1 -1 -1 -0 -0 -0 -0 -0 -0 -0 -0 -0 -0 -0 0 0 0 0 0 0 -0 -0 -0 -0 0 0 0 0 nan
nan 0 -0 -0 -0 0 0 -0 0 -0 0 0 -0 0 1 0 1 0 0 -0 -1 -1 0 0 -0 -0 -0 0 -0 -0 0 0 0 -0 -0 0 0 -0 0 0 0 -0 -0 0 0 0 0 0 nan
nan -0 -0 0 0 -0 -0 -0 -0 -0 -0 -1 0 3 1 -0 -0 0 0 -1 -0 1 0 -0 -0 0 0 -0 -0 0 0 0 0 -0 -0 -0 -0 -0 -0 -0 -0 -0 0 0 0 0 0 -0 nan
nan nan nan nan nan nan nan nan nan nan nan nan nan nan nan nan nan nan nan nan nan nan nan nan nan nan nan nan nan nan nan nan nan nan nan nan nan nan nan nan nan nan nan nan nan nan nan nan nan
Wind_Speed
3 4 5 5 3 4 1 4 3 5 2 11 12 6 9 12 2 3 19 30 31 28 25 22 19 17 16 15 15 16 15 13 12 12 13 13 12 12 11 12 12 12 11 11 11 9 10 10 9
3 5 4 3 4 2 4 4 7 6 12 23 17 10 8 4 9 23 35 26 29 27 25 22 19 17 17 16 15 15 14 13 12 12 11 12 11 10 11 12 13 11 11 10 9 10 10 11 13
5 4 4 3 2 3 3 3 7 20 26 16 7 11 5 8 23 35 27 29 30 27 24 21 19 18 17 16 15 15 14 13 13 12 11 12 12 12 13 14 12 11 11 11 10 11 11 12 13
3 4 6 4 3 9 11 4 6 12 19 15 20 6 10 13 29 26 29 30 29 27 24 20 18 17 16 15 15 15 14 13 13 13 13 12 14 13 13 12 12 10 10 10 9 9 11 12 12
4 4 3 3 6 7 5 6 9 11 9 16 17 6 22 14 23 28 26 30 28 26 22 20 17 16 16 16 15 15 15 13 14 14 14 12 13 12 11 10 9 9 8 8 8 9 11 9 8
4 3 2 3 7 10 5 22 19 14 18 18 18 15 7 27 27 24 24 30 25 23 21 18 16 16 15 15 14 14 16 15 15 14 13 12 12 11 10 8 7 7 6 7 7 7 8 7 6
5 1 4 5 4 5 4 13 4 17 17 10 26 6 19 33 27 27 23 30 23 21 21 17 15 16 15 15 15 14 16 16 15 14 13 11 11 10 9 8 8 7 5 5 4 4 5 5 3
6 3 3 4 4 6 2 14 9 15 6 20 27 8 22 35 33 30 24 26 21 20 19 18 14 14 15 15 16 14 15 16 14 13 13 11 11 9 9 8 9 9 8 5 2 1 1 2 3
5 3 3 2 6 7 7 5 6 9 18 20 7 22 36 39 37 34 32 28 24 20 19 16 13 13 14 14 16 15 16 16 15 14 13 11 10 9 9 8 8 8 8 7 6 3 1 2 2
4 3 5 3 8 14 15 16 15 8 9 8 8 28 37 36 35 38 37 31 26 22 20 15 15 14 14 14 14 15 15 15 14 13 13 12 12 11 10 9 9 9 5 5 4 3 2 1 3
5 5 8 28 23 25 21 5 9 8 4 13 33 38 39 37 39 39 35 27 25 19 20 17 15 13 15 15 14 15 16 15 15 15 13 10 10 10 9 8 8 6 6 3 1 2 2 5 5
2 17 20 18 19 26 12 14 7 14 6 22 36 45 40 38 40 36 36 32 27 24 19 17 14 13 18 13 15 15 16 14 15 12 11 12 11 6 6 4 3 2 3 4 6 4 5 5 7
5 5 12 27 29 11 21 14 10 17 13 30 39 40 40 40 38 32 31 29 26 25 22 18 16 14 17 15 18 18 17 15 12 12 11 8 5 3 1 2 3 2 3 6 8 6 6 6 6
7 20 24 16 15 5 13 10 12 14 34 32 35 34 38 37 36 34 33 32 29 26 24 20 18 17 17 17 17 16 16 14 12 10 10 10 6 2 2 2 1 1 2 5 5 8 7 7 5
12 8 11 6 4 4 9 6 1 27 30 28 29 30 34 34 31 35 33 34 31 30 25 24 20 20 18 17 15 13 11 12 9 8 12 6 3 7 5 3 4 4 3 5 6 7 11 9 7
8 3 7 6 9 5 14 4 6 14 24 24 28 29 32 29 30 32 33 35 32 32 29 26 25 22 20 17 15 13 12 13 10 11 11 9 6 8 9 10 7 8 6 3 3 7 8 10 9
6 3 12 10 7 4 11 5 10 12 17 27 30 32 31 32 33 32 33 37 35 35 31 31 29 21 20 19 17 18 16 13 14 13 13 6 3 8 8 9 6 3 4 2 2 5 8 7 9
3 6 11 11 7 8 9 10 13 24 26 25 33 34 36 37 37 34 32 37 38 38 33 32 26 24 18 24 23 22 19 11 13 14 11 9 4 2 8 6 3 1 3 2 2 5 1 6 7
7 16 18 19 26 10 11 10 10 13 9 24 28 32 37 41 38 36 34 29 40 39 37 33 29 24 19 20 30 26 24 16 15 14 10 12 9 5 7 5 3 1 3 2 1 1 4 2 5
15 18 21 16 11 6 9 10 11 6 11 23 33 32 37 40 41 40 35 30 39 38 38 33 28 24 20 16 28 27 24 13 14 13 12 13 8 5 8 6 5 4 7 3 1 1 2 4 5
11 17 21 8 14 7 10 4 10 8 14 18 22 32 33 40 42 43 43 38 36 36 38 33 28 25 23 19 18 27 26 19 18 18 15 13 13 8 7 8 9 9 6 4 3 4 2 1 1
11 17 15 12 4 5 6 5 6 7 13 10 24 29 35 39 44 47 46 43 40 37 34 33 31 29 25 23 21 26 30 25 22 21 14 13 13 6 6 9 12 10 9 9 5 5 4 4 4
14 15 10 14 8 4 5 5 6 12 15 17 20 27 41 46 48 49 50 48 44 39 38 36 34 30 27 28 25 24 29 25 20 18 18 16 17 12 10 9 11 11 10 13 11 9 6 6 5
18 9 6 3 3 3 7 3 6 6 10 7 17 28 32 37 39 49 49 48 46 42 39 38 37 33 28 30 29 27 31 25 21 19 18 21 16 16 14 12 13 14 13 15 14 11 10 7 6
5 3 4 4 4 5 6 1 9 8 11 9 10 26 30 31 40 41 46 48 48 46 43 41 40 37 31 29 32 30 32 29 26 23 19 16 20 17 16 15 15 17 13 14 15 14 12 9 8
7 6 5 7 5 7 3 5 6 3 10 22 11 13 3 23 32 42 51 53 50 48 47 45 44 41 34 30 31 32 32 31 29 27 25 21 20 18 15 14 15 14 13 15 16 16 13 11 9
8 9 5 4 2 3 3 7 8 6 8 5 10 12 24 21 35 48 51 53 52 50 50 48 46 43 37 30 31 32 33 31 31 30 28 21 20 17 14 16 16 17 16 15 17 17 15 13 12
4 5 8 5 2 3 5 3 5 1 6 5 2 14 27 22 21 40 48 53 52 52 50 50 47 44 39 34 31 30 31 33 30 28 32 29 23 23 23 22 20 23 24 20 18 19 15 15 14
10 6 5 2 3 1 3 6 7 9 6 10 9 26 15 13 11 18 32 50 54 53 52 52 50 47 43 37 34 32 31 33 32 31 30 32 29 25 25 27 27 25 25 25 19 18 17 16 16
4 5 5 4 7 2 5 5 8 10 8 20 14 24 20 1 21 10 20 39 50 53 51 52 49 47 45 37 35 35 31 29 34 34 33 31 29 31 30 28 29 24 23 24 23 19 18 18 18
Wind_Direction
187 310 14 59 55 63 301 287 216 154 57 79 112 144 119 44 140 177 146 160 159 156 160 163 163 159 157 157 149 148 149 147 140 138 133 128 128 132 136 137 135 135 131 133 138 137 135 130 123
115 293 46 65 76 69 276 235 148 183 128 103 75 81 52 102 88 132 152 159 159 158 159 160 157 156 157 156 150 150 149 150 142 140 136 128 127 128 129 134 135 129 129 132 137 130 129 127 128
154 121 52 66 81 244 220 220 156 135 140 123 118 81 76 107 134 145 151 158 160 160 158 156 155 157 156 153 150 149 151 149 148 144 135 128 129 124 121 131 129 130 128 123 122 137 134 127 134
337 58 70 69 288 263 256 219 171 154 118 101 121 75 83 135 149 152 149 157 160 158 157 155 155 153 151 153 152 153 149 148 148 144 135 130 130 125 124 129 131 131 127 131 135 129 138 133 135
60 45 61 92 288 281 242 78 349 105 91 120 120 104 135 153 142 147 153 157 161 157 157 157 154 153 154 155 157 155 148 150 148 145 136 131 132 128 132 130 129 131 134 130 134 134 137 135 137
51 32 29 228 216 235 143 137 226 114 128 115 106 114 138 156 149 146 152 158 156 156 160 158 156 155 157 157 155 156 148 151 150 147 138 135 135 133 132 127 125 124 127 132 127 138 150 149 145
85 96 219 276 267 263 114 108 7 119 124 128 135 112 140 153 153 154 152 159 155 158 163 162 163 160 159 158 155 157 151 149 152 147 137 134 133 131 125 118 104 103 113 131 137 141 155 169 169
125 136 235 211 351 306 155 121 126 117 117 129 124 155 166 165 159 164 163 160 165 173 170 163 168 167 165 160 156 157 155 151 152 146 137 137 130 129 120 104 91 80 77 73 82 179 215 217 222
64 7 268 240 53 294 196 136 169 119 138 151 206 175 161 161 167 173 169 168 174 181 177 165 172 173 170 167 156 159 155 155 154 149 141 133 129 116 110 99 88 82 70 64 65 67 170 245 259
141 241 282 11 204 206 217 166 153 148 160 205 160 160 158 162 170 170 170 174 171 164 167 166 174 174 173 169 164 159 159 155 154 146 139 125 123 113 96 97 94 83 94 64 65 75 69 356 276
174 243 259 281 249 208 193 166 157 142 204 191 152 158 164 168 171 175 175 180 178 163 167 169 164 174 171 162 158 159 158 156 147 137 141 135 131 126 103 88 80 66 75 69 39 312 341 300 300
202 233 243 285 319 184 179 147 160 181 239 169 163 160 169 180 171 178 180 181 178 177 174 168 158 161 161 153 154 157 158 157 152 144 144 123 116 110 85 57 62 42 27 325 335 350 335 341 340
220 283 298 303 297 203 154 179 173 203 162 152 162 165 175 181 184 183 186 186 185 185 181 174 159 156 160 150 149 150 145 146 150 148 152 146 134 126 82 39 27 134 330 6 349 336 351 21 4
295 305 289 292 279 180 174 176 159 199 153 150 163 174 179 186 187 188 182 189 196 194 186 180 171 163 156 149 157 153 151 150 147 150 144 133 131 189 232 224 53 206 7 345 351 344 349 8 12
271 308 312 358 286 17 105 73 82 153 158 158 167 180 185 191 193 183 189 197 199 200 191 188 181 180 171 166 169 169 174 176 168 144 174 157 157 240 217 240 275 294 322 336 0 346 351 353 344
334 84 352 328 22 25 25 44 335 140 166 175 174 183 190 198 200 199 199 203 204 198 199 193 187 191 184 182 181 190 214 211 201 180 167 193 207 218 234 239 262 285 287 353 355 349 9 10 17
9 352 320 331 360 72 61 284 144 155 168 169 179 184 192 204 208 211 211 205 206 204 200 190 193 199 197 193 194 204 207 208 201 188 192 193 245 252 243 248 249 274 248 219 307 345 346 355 0
285 292 284 275 264 77 137 234 177 165 168 194 183 189 195 206 214 216 215 209 205 202 201 196 198 197 210 211 205 193 194 201 198 199 198 198 204 264 227 234 193 229 234 218 334 327 12 4 358
309 277 264 268 272 230 166 210 205 198 185 180 199 192 199 207 210 214 206 208 202 201 197 198 199 201 200 200 195 193 195 202 181 203 196 204 219 190 188 195 207 171 184 183 331 353 147 23 15
245 265 284 280 293 171 162 211 219 225 223 192 193 200 201 207 208 201 204 204 202 204 203 206 208 205 208 202 201 199 192 194 191 205 217 218 232 236 208 239 235 209 214 225 238 68 159 82 15
241 224 255 248 311 94 119 331 258 228 226 233 208 205 206 202 203 200 195 197 198 199 206 208 208 212 214 207 193 196 195 195 199 214 225 234 236 232 225 220 217 208 238 230 190 189 230 179 16
263 210 248 302 351 161 193 226 285 247 231 241 218 204 210 204 202 196 198 197 204 209 209 211 212 215 217 210 204 198 194 200 201 216 206 220 218 228 239 224 222 222 233 217 209 210 246 299 329
254 288 280 286 271 63 326 99 242 217 234 221 220 232 208 202 200 199 200 202 203 206 207 211 214 217 221 213 212 205 204 202 210 215 228 222 236 222 226 226 224 226 231 220 228 228 243 281 290
258 282 298 11 88 48 240 137 281 205 227 196 191 204 193 201 200 203 205 202 204 206 207 211 212 216 221 219 214 207 202 202 211 213 211 218 222 227 225 227 234 226 225 229 236 240 242 254 265
209 101 300 332 1 222 197 190 237 269 239 232 189 189 196 201 202 200 197 198 206 205 207 211 214 215 219 219 215 209 209 209 216 214 218 219 227 222 228 235 235 226 234 233 232 241 236 241 257
289 170 163 213 205 241 68 239 260 219 254 235 259 93 95 205 200 201 202 202 204 207 209 212 215 217 217 216 214 215 214 213 216 213 213 223 232 232 247 244 231 219 222 230 234 233 235 237 246
320 354 231 164 81 97 232 292 324 18 31 68 117 78 20 336 229 202 203 203 204 210 212 214 216 217 216 214 211 214 214 212 213 211 216 220 225 222 235 238 233 237 234 235 235 236 241 245 251
87 287 357 358 334 283 282 289 234 294 172 167 96 65 46 33 209 194 195 201 205 215 216 216 218 217 214 213 212 212 215 216 215 213 212 217 222 227 238 243 243 250 246 244 244 238 241 243 249
348 6 10 146 84 322 305 274 227 210 233 108 87 77 63 58 57 188 206 202 209 214 217 218 219 217 215 215 215 213 215 217 220 219 218 223 225 226 230 236 244 250 243 240 245 241 241 242 247
218 111 92 84 308 258 166 280 1 288 229 117 123 113 102 131 270 285 265 221 204 211 217 218 219 218 218 217 217 218 218 221 222 226 225 224 227 229 233 234 239 239 234 234 242 242 248 253 255
Height
1507 1505 1504 1502 1512 1511 1519 1506 1494 1497 1493 1491 1491 1494 1498 1500 1501 1517 1509 1514 1519 1523 1527 1530 1532 1533 1535 1536 1538 1538 1539 1540 1542 1544 1546 1546 1547 1548 1549 1549 1550 1551 1553 1555 1555 1556 1556 1556 1556
1508 1505 1502 1501 1519 1526 1517 1497 1493 1491 1490 1491 1493 1495 1496 1504 1503 1506 1512 1517 1520 1524 1527 1531 1533 1534 1535 1536 1538 1539 1540 1541 1543 1545 1546 1546 1548 1549 1549 1550 1551 1552 1553 1555 1556 1556 1557 1557 1556
1506 1504 1503 1510 1520 1523 1512 1492 1489 1487 1488 1489 1496 1498 1500 1505 1505 1509 1514 1518 1522 1525 1528 1531 1533 1534 1535 1536 1538 1539 1540 1541 1543 1545 1546 1547 1548 1549 1550 1551 1552 1553 1554 1555 1556 1557 1558 1558 1558
1506 1505 1508 1518 1522 1504 1501 1486 1485 1487 1490 1490 1494 1500 1504 1506 1507 1510 1514 1518 1523 1527 1529 1532 1534 1535 1535 1537 1539 1540 1541 1542 1543 1545 1546 1548 1549 1550 1551 1552 1553 1553 1554 1555 1556 1558 1559 1560 1561
1508 1507 1515 1523 1517 1501 1490 1487 1490 1489 1490 1491 1491 1502 1505 1511 1511 1513 1516 1520 1524 1528 1531 1533 1534 1535 1536 1537 1539 1540 1541 1542 1543 1545 1546 1548 1549 1551 1552 1553 1554 1555 1556 1557 1558 1559 1560 1561 1562
1513 1513 1525 1524 1510 1494 1486 1485 1486 1486 1490 1494 1498 1502 1509 1510 1512 1516 1517 1521 1526 1528 1530 1532 1534 1535 1536 1537 1539 1540 1541 1543 1544 1545 1547 1548 1550 1552 1553 1555 1556 1557 1558 1559 1560 1561 1562 1562 1562
1516 1519 1523 1517 1505 1495 1488 1493 1493 1491 1493 1496 1497 1504 1512 1511 1513 1516 1519 1522 1525 1527 1529 1532 1534 1535 1537 1538 1539 1541 1542 1543 1545 1546 1547 1549 1551 1553 1554 1556 1557 1558 1559 1560 1561 1562 1563 1563 1563
1509 1515 1515 1509 1513 1508 1493 1487 1495 1491 1493 1496 1500 1504 1509 1510 1513 1517 1519 1523 1525 1527 1530 1531 1533 1535 1537 1538 1539 1541 1542 1543 1545 1546 1548 1550 1552 1554 1555 1557 1558 1559 1561 1562 1563 1563 1564 1563 1563
1513 1523 1519 1504 1511 1504 1493 1488 1491 1491 1492 1494 1497 1500 1503 1509 1512 1516 1519 1523 1526 1528 1530 1532 1533 1535 1537 1538 1540 1542 1543 1544 1545 1546 1548 1551 1552 1554 1556 1558 1559 1561 1562 1561 1562 1562 1563 1563 1562
1518 1521 1506 1499 1496 1489 1488 1485 1487 1490 1494 1496 1496 1501 1506 1509 1511 1514 1517 1521 1525 1526 1529 1531 1533 1535 1537 1539 1540 1542 1543 1544 1545 1547 1550 1551 1553 1555 1557 1559 1560 1561 1561 1562 1562 1562 1562 1562 1563
1513 1511 1496 1487 1492 1490 1482 1487 1484 1486 1493 1491 1493 1498 1504 1509 1511 1513 1516 1518 1522 1525 1528 1531 1532 1534 1537 1539 1540 1541 1543 1545 1546 1548 1550 1552 1554 1556 1558 1560 1561 1561 1561 1562 1563 1562 1563 1563 1563
1509 1500 1494 1480 1477 1481 1482 1485 1484 1485 1484 1486 1490 1493 1501 1507 1509 1511 1514 1518 1522 1524 1527 1530 1532 1534 1536 1538 1539 1541 1543 1545 1547 1550 1551 1553 1554 1556 1558 1559 1561 1561 1561 1562 1563 1561 1563 1563 1563
1498 1490 1486 1479 1475 1476 1478 1477 1479 1483 1486 1488 1494 1498 1501 1504 1508 1511 1513 1516 1519 1522 1527 1529 1532 1534 1536 1538 1539 1541 1544 1546 1548 1549 1551 1553 1555 1556 1557 1558 1560 1562 1561 1561 1562 1562 1563 1563 1562
1492 1488 1481 1476 1475 1477 1477 1479 1480 1483 1487 1491 1496 1500 1502 1505 1507 1510 1513 1514 1516 1520 1524 1527 1531 1534 1536 1538 1540 1542 1545 1546 1548 1550 1552 1554 1555 1555 1556 1558 1559 1560 1561 1562 1563 1562 1561 1561 1559
1493 1491 1478 1474 1474 1471 1474 1484 1484 1482 1489 1493 1497 1501 1503 1505 1508 1509 1511 1512 1514 1518 1522 1525 1528 1532 1534 1538 1540 1543 1545 1546 1548 1550 1551 1553 1554 1554 1556 1557 1559 1559 1561 1561 1561 1560 1559 1558 1556
1491 1488 1498 1476 1472 1473 1481 1504 1491 1492 1493 1496 1497 1501 1503 1505 1506 1508 1509 1511 1514 1517 1520 1524 1526 1529 1533 1536 1539 1541 1544 1545 1547 1549 1551 1553 1555 1555 1557 1558 1559 1559 1560 1560 1560 1559 1560 1558 1555
1497 1518 1497 1487 1475 1480 1493 1505 1484 1486 1491 1491 1495 1496 1500 1504 1505 1506 1508 1510 1511 1514 1518 1522 1524 1527 1531 1534 1538 1542 1543 1544 1546 1549 1551 1554 1555 1555 1557 1558 1559 1557 1558 1558 1557 1557 1558 1557 1555
1516 1513 1497 1495 1478 1485 1493 1495 1476 1474 1473 1484 1485 1490 1492 1497 1500 1503 1505 1506 1509 1512 1516 1520 1523 1525 1529 1532 1537 1540 1542 1543 1544 1548 1551 1553 1555 1555 1556 1557 1557 1557 1557 1557 1556 1556 1557 1555 1555
1512 1503 1504 1485 1475 1483 1494 1491 1476 1470 1475 1475 1482 1483 1486 1488 1492 1499 1503 1504 1507 1510 1514 1518 1521 1525 1527 1529 1533 1537 1540 1542 1544 1547 1550 1552 1554 1554 1555 1556 1557 1557 1557 1556 1555 1556 1556 1556 1555
1505 1507 1496 1471 1455 1469 1482 1492 1471 1470 1467 1466 1472 1476 1478 1484 1487 1491 1497 1500 1503 1507 1511 1515 1519 1521 1524 1527 1530 1535 1539 1540 1543 1546 1548 1551 1552 1553 1554 1555 1556 1556 1555 1554 1556 1556 1557 1557 1555
1492 1500 1490 1476 1461 1464 1477 1491 1477 1463 1462 1466 1467 1470 1475 1476 1480 1486 1490 1493 1499 1503 1507 1511 1515 1518 1521 1525 1528 1532 1536 1539 1541 1544 1546 1548 1550 1552 1553 1554 1554 1554 1555 1555 1556 1556 1556 1557 1556
1492 1473 1470 1468 1476 1501 1470 1510 1480 1467 1462 1460 1460 1461 1467 1471 1475 1480 1485 1486 1491 1497 1503 1507 1511 1514 1517 1521 1525 1528 1531 1535 1538 1541 1543 1545 1547 1549 1550 1552 1553 1553 1554 1555 1555 1555 1555 1555 1557
1474 1457 1464 1464 1474 1476 1473 1491 1473 1459 1457 1455 1453 1452 1454 1460 1466 1471 1477 1481 1484 1491 1497 1502 1506 1510 1513 1517 1521 1525 1529 1533 1535 1538 1541 1544 1544 1546 1548 1549 1551 1552 1553 1553 1553 1553 1554 1553 1555
1458 1464 1466 1470 1481 1503 1477 1482 1478 1461 1447 1446 1442 1446 1448 1459 1465 1467 1471 1479 1482 1487 1493 1498 1502 1506 1509 1512 1517 1521 1525 1528 1532 1535 1538 1539 1541 1543 1545 1547 1548 1550 1550 1550 1552 1553 1552 1553 1553
1463 1476 1505 1507 1510 1507 1472 1482 1467 1436 1434 1430 1431 1438 1445 1451 1460 1463 1469 1474 1478 1482 1488 1492 1496 1500 1504 1507 1512 1516 1520 1524 1528 1532 1534 1536 1537 1539 1542 1544 1545 1546 1547 1548 1550 1551 1551 1552 1552
1465 1473 1502 1513 1515 1498 1475 1483 1459 1431 1425 1425 1429 1441 1448 1450 1451 1458 1461 1466 1472 1477 1482 1486 1490 1495 1500 1503 1506 1511 1515 1519 1523 1527 1530 1532 1533 1537 1539 1541 1543 1544 1545 1546 1548 1549 1551 1551 1552
1464 1475 1457 1476 1477 1493 1480 1460 1440 1428 1427 1429 1429 1434 1436 1433 1436 1443 1453 1461 1468 1472 1476 1480 1484 1489 1495 1498 1502 1506 1511 1515 1518 1522 1526 1529 1531 1534 1537 1538 1540 1541 1542 1544 1546 1547 1549 1549 1549
1462 1459 1483 1476 1491 1494 1485 1472 1470 1440 1435 1430 1433 1424 1426 1428 1433 1436 1446 1454 1462 1465 1469 1474 1478 1483 1488 1493 1497 1501 1505 1510 1514 1518 1521 1524 1528 1530 1533 1534 1535 1537 1539 1541 1543 1545 1547 1547 1547
1468 1482 1479 1483 1493 1505 1508 1483 1439 1433 1424 1430 1427 1418 1423 1430 1440 1445 1454 1451 1454 1459 1464 1468 1473 1478 1484 1489 1493 1497 1501 1505 1509 1513 1516 1520 1524 1526 1528 1529 1530 1532 1534 1537 1539 1541 1543 1543 1544
1463 1475 1486 1507 1503 1500 1505 1484 1435 1435 1420 1426 1427 1424 1420 1425 1443 1449 1454 1457 1451 1453 1458 1460 1466 1472 1477 1483 1488 1492 1496 1500 1503 1506 1510 1515 1517 1521 1523 1525 1526 1527 1529 1532 1534 1536 1539 1540 1541